Wind_Speed
6 6 6 6 6 6 7 7 8 8 8 9 9 10 10 11 11 12 13 14 14 14 14 14 15 15 16 16 16 16 16 17 17 17 17 17 18 18 18 18 17 18 18
9 8 8 8 8 8 8 9 9 9 10 10 11 11 12 13 14 14 15 15 15 15 16 16 17 17 17 18 18 18 18 19 19 19 19 19 19 19 19 19 18 19 19
11 11 11 11 11 10 10 11 11 11 11 12 13 13 13 14 15 16 16 18 17 18 18 18 19 19 19 20 21 21 21 21 21 21 21 21 21 21 21 20 20 20 21
13 13 13 13 13 13 13 13 13 13 13 14 14 14 15 16 16 16 16 17 18 19 20 21 21 21 21 22 23 24 24 24 23 23 22 22 23 23 22 22 22 22 22
15 15 15 16 15 16 16 16 16 16 16 16 16 16 17 18 18 18 19 19 20 21 22 22 23 23 24 24 25 25 26 25 25 24 23 24 24 24 24 23 23 24 24
17 18 18 19 18 18 18 18 18 17 18 18 18 19 19 19 20 21 22 22 23 23 24 25 26 26 26 26 27 27 27 26 25 25 25 25 25 25 25 25 24 25 25
20 20 20 20 21 20 20 20 20 20 20 20 21 20 21 21 22 23 24 25 25 26 26 26 27 27 28 28 28 27 26 26 26 25 26 26 26 27 27 27 27 27 26
23 23 24 24 23 23 23 22 22 23 23 23 23 23 24 25 25 26 26 26 28 28 28 29 29 29 29 29 28 27 26 26 27 26 27 27 28 28 29 29 29 29 28
25 26 26 26 25 25 25 25 25 26 26 26 26 26 27 27 27 28 28 28 29 30 31 31 30 29 29 29 28 27 26 27 28 29 29 29 29 30 31 31 30 30 29
27 28 28 28 28 27 27 28 28 29 29 29 29 29 30 30 30 30 30 30 31 32 33 32 31 30 30 29 29 29 29 30 31 31 31 31 32 32 32 32 32 32 31
29 30 30 30 30 30 30 30 31 31 31 31 31 31 31 31 31 32 32 33 34 33 33 33 32 32 31 30 30 31 31 32 32 32 32 32 32 33 33 33 32 33 33
32 32 32 32 32 33 32 32 33 34 34 33 33 33 33 34 34 34 34 35 36 36 35 34 34 33 32 31 32 32 33 33 33 33 33 32 33 33 33 33 32 33 33
34 35 35 34 34 35 35 35 35 35 36 35 35 36 35 35 35 36 36 36 36 36 36 35 35 34 34 34 34 34 34 34 34 33 33 33 34 33 33 34 34 34 34
37 37 37 37 37 37 37 38 38 37 38 38 37 37 37 37 37 37 37 37 37 37 37 37 36 36 36 36 36 36 35 35 35 35 35 35 35 35 34 34 35 35 35
38 39 39 39 39 39 38 39 39 39 39 39 38 38 37 38 38 38 39 39 39 39 39 38 38 38 37 37 37 37 37 37 37 37 37 36 36 36 36 36 35 35 35
38 39 39 39 39 40 40 39 39 40 39 39 39 39 39 38 39 39 40 40 40 40 39 38 38 37 37 37 38 38 38 38 38 38 37 37 36 37 37 37 37 37 36
38 39 39 39 39 39 40 40 40 40 40 40 40 40 40 40 40 40 40 40 40 40 39 38 38 38 38 37 37 38 38 38 38 38 37 37 37 37 37 37 37 37 35
39 39 39 39 39 39 40 40 40 40 40 40 40 40 40 40 40 40 40 40 40 40 40 39 38 38 38 38 38 38 39 39 38 38 38 38 38 38 37 36 35 34 33
39 39 38 38 38 39 39 39 39 39 40 40 41 40 40 40 40 39 40 41 40 41 41 40 39 39 38 38 38 38 39 39 38 38 38 37 37 37 36 34 34 33 33
38 38 37 38 38 39 39 39 39 39 39 40 40 40 40 40 39 39 40 40 40 40 40 39 39 39 38 37 37 37 37 37 37 37 36 36 36 35 35 34 33 33 32
36 36 36 36 37 37 38 38 38 39 38 38 37 36 36 37 37 37 38 39 39 39 39 39 39 38 37 36 36 35 35 35 35 35 35 35 35 35 34 34 33 32 32
35 35 35 35 35 36 36 37 37 36 37 36 36 35 35 35 35 36 36 37 37 37 38 38 37 36 35 34 34 34 34 34 35 35 36 35 34 33 33 33 32 31 31
31 31 32 32 32 33 34 34 34 34 34 33 33 34 34 34 35 35 35 36 36 36 36 36 35 34 33 33 33 33 33 34 34 34 35 35 35 33 32 31 31 31 30
28 28 28 29 29 30 31 31 31 31 31 32 32 33 33 33 34 34 34 35 35 35 35 33 32 32 32 31 32 32 32 32 32 32 32 32 32 31 31 31 31 31 31
25 25 26 26 26 27 27 27 27 27 28 29 30 31 31 31 32 33 34 33 33 32 31 31 31 30 30 30 30 31 32 32 31 30 30 30 29 29 29 30 30 30 31
23 24 24 24 25 24 25 24 24 25 25 26 26 27 29 30 30 31 31 30 30 29 29 30 30 30 29 29 29 30 30 30 30 30 29 29 29 29 29 29 29 30 30
Wind_Direction
289 292 297 293 292 288 287 291 293 293 294 294 296 294 294 291 293 293 291 292 292 295 298 300 302 304 307 309 308 310 311 311 310 310 311 309 309 305 303 303 300 301 297
284 286 286 283 288 289 289 290 289 289 290 291 294 295 294 291 290 289 290 293 294 297 299 299 301 303 307 307 306 306 306 307 307 307 309 309 307 307 305 304 302 300 298
283 283 283 279 279 284 287 286 287 288 286 290 293 294 293 292 292 291 292 292 294 297 300 300 300 302 302 302 303 302 302 303 303 304 306 306 306 306 305 304 301 299 297
275 279 281 279 277 280 284 286 285 284 284 286 290 292 294 296 299 297 296 296 296 298 299 298 298 299 299 299 300 300 301 301 301 302 303 304 304 304 303 302 300 297 296
274 276 277 277 277 278 281 284 284 283 284 287 288 291 293 295 296 297 298 297 296 296 297 297 297 297 297 297 298 299 300 301 300 301 302 302 303 303 302 300 299 297 296
277 277 276 277 277 276 278 280 281 282 284 285 286 289 290 290 291 294 296 296 295 294 294 294 295 294 294 295 295 296 298 299 299 299 300 301 301 301 301 299 298 297 295
274 274 275 276 276 276 276 278 279 281 282 285 286 288 290 292 292 293 294 293 293 294 293 293 293 293 292 293 294 294 297 299 298 298 299 301 300 301 299 299 298 298 296
271 271 273 273 274 274 276 278 279 280 280 282 284 287 288 291 291 291 292 293 292 293 293 294 294 293 292 292 292 293 296 297 297 296 298 298 299 299 297 296 296 297 297
268 269 270 272 272 273 275 276 278 280 281 283 283 285 287 288 290 290 291 292 293 294 293 294 295 293 292 292 293 293 293 294 294 295 296 296 296 297 298 296 295 296 297
266 267 269 268 270 271 273 275 277 279 281 281 283 285 287 287 288 289 290 292 294 296 296 297 297 295 293 293 293 294 294 294 293 294 295 295 295 295 295 295 294 294 295
265 266 269 269 271 272 273 276 277 278 279 280 282 284 286 286 288 288 289 290 292 293 295 294 294 293 292 292 292 293 294 294 293 293 293 295 296 296 295 295 293 293 293
266 267 269 269 271 273 274 275 276 277 278 279 281 283 284 287 289 290 290 289 290 291 291 291 291 291 291 291 291 292 292 292 293 292 292 293 295 295 294 294 292 293 292
269 270 270 271 273 275 275 276 276 276 277 279 281 283 286 287 289 290 290 289 290 290 290 289 289 289 290 291 291 290 290 290 290 291 291 292 292 293 292 293 292 292 292
270 272 272 273 274 274 275 276 276 277 277 279 282 283 284 286 288 290 290 290 290 290 290 289 288 289 290 289 288 287 287 288 288 289 290 291 291 291 291 291 292 292 292
270 271 272 272 274 274 274 275 276 277 279 280 281 283 284 285 286 287 288 289 289 289 289 290 289 288 288 288 288 288 287 287 287 289 290 290 291 291 292 292 291 293 292
270 271 272 273 273 274 274 273 275 277 278 279 280 281 282 284 285 286 287 288 289 289 289 289 289 287 286 286 286 286 285 286 286 287 289 290 290 291 291 291 290 291 292
271 272 273 273 273 273 274 273 274 275 276 278 279 280 281 282 284 285 285 287 288 288 288 289 288 287 286 286 286 286 285 285 285 286 287 288 289 290 290 290 290 291 291
271 272 273 273 273 274 275 274 274 274 275 276 278 279 280 281 283 284 284 285 286 286 288 288 287 286 286 285 285 285 285 285 285 286 286 287 288 288 289 289 290 289 289
271 272 272 273 274 275 276 275 275 275 275 276 277 278 279 280 282 283 283 285 286 286 287 286 286 286 285 285 285 285 284 284 284 285 285 286 286 286 287 288 289 289 289
271 271 272 273 275 276 275 275 275 275 276 277 277 278 279 279 280 282 283 284 285 286 286 286 286 285 285 285 285 285 285 284 284 285 284 284 285 285 286 287 288 289 289
272 272 273 275 275 276 276 276 275 275 276 278 278 277 279 280 281 282 283 284 285 285 285 285 286 285 285 286 286 285 285 285 285 285 285 285 284 285 287 287 287 287 287
273 272 273 275 277 278 279 277 276 276 277 278 280 279 279 280 282 283 283 284 285 284 284 284 284 284 285 286 285 285 285 285 285 284 284 284 285 286 286 286 287 286 285
274 273 273 275 276 278 280 279 279 279 279 280 280 282 283 285 285 284 285 286 286 286 285 284 283 286 287 285 284 285 285 284 286 285 284 284 283 284 284 283 285 286 286
275 275 276 278 280 281 282 282 282 281 281 281 281 283 283 286 289 288 287 287 287 286 286 284 285 286 286 287 286 285 286 287 287 287 286 284 283 283 283 284 286 286 285
275 277 278 279 281 282 284 285 285 283 283 284 284 284 285 287 289 290 291 292 290 287 287 287 287 287 287 286 287 287 285 286 287 287 286 285 285 285 285 286 286 285 285
277 279 280 282 282 283 284 285 286 286 288 289 288 289 290 291 291 292 291 292 293 293 293 292 291 290 288 286 286 286 287 287 287 286 286 287 287 287 287 287 287 286 285
Height
5898 5898 5898 5897 5896 5896 5895 5894 5893 5893 5892 5891 5890 5889 5888 5887 5886 5885 5883 5882 5881 5879 5877 5876 5874 5872 5869 5867 5865 5863 5861 5859 5857 5854 5851 5849 5846 5844 5842 5839 5837 5835 5832
5896 5895 5895 5894 5894 5893 5892 5892 5891 5890 5889 5888 5887 5886 5885 5883 5882 5881 5879 5878 5876 5875 5873 5871 5869 5867 5866 5863 5861 5859 5857 5854 5852 5850 5847 5844 5841 5839 5836 5834 5831 5829 5827
5893 5892 5892 5891 5891 5890 5889 5888 5887 5886 5885 5884 5883 5882 5881 5879 5878 5876 5875 5873 5872 5870 5869 5867 5865 5863 5861 5859 5856 5854 5851 5849 5847 5844 5842 5839 5836 5833 5831 5828 5826 5823 5821
5889 5889 5888 5887 5887 5886 5886 5885 5884 5882 5881 5881 5880 5878 5877 5875 5874 5872 5870 5869 5867 5865 5864 5862 5860 5858 5855 5853 5850 5848 5845 5843 5840 5838 5836 5833 5830 5828 5825 5823 5820 5817 5815
5885 5885 5884 5883 5883 5882 5881 5880 5879 5878 5877 5876 5875 5874 5873 5871 5869 5868 5866 5864 5862 5860 5858 5856 5854 5852 5849 5847 5844 5842 5839 5836 5834 5831 5829 5827 5824 5821 5819 5817 5814 5811 5809
5879 5879 5879 5879 5878 5877 5877 5876 5875 5874 5873 5871 5870 5869 5867 5866 5864 5862 5861 5859 5857 5854 5852 5850 5847 5845 5842 5840 5837 5835 5832 5830 5827 5825 5822 5820 5817 5815 5812 5810 5807 5805 5802
5873 5873 5873 5873 5872 5872 5871 5870 5869 5868 5867 5866 5864 5863 5862 5860 5858 5856 5854 5852 5850 5848 5845 5843 5840 5837 5835 5832 5830 5827 5825 5822 5820 5818 5816 5813 5810 5808 5805 5802 5800 5798 5795
5867 5867 5867 5867 5866 5865 5865 5864 5863 5861 5860 5859 5858 5857 5855 5853 5851 5849 5847 5844 5842 5839 5837 5835 5832 5829 5827 5824 5822 5820 5818 5815 5813 5811 5808 5805 5803 5800 5797 5795 5792 5790 5787
5860 5860 5860 5859 5859 5858 5857 5857 5856 5855 5853 5852 5850 5849 5847 5845 5843 5841 5839 5836 5834 5831 5829 5826 5823 5821 5818 5816 5814 5812 5810 5808 5805 5803 5800 5797 5794 5791 5789 5786 5783 5781 5779
5853 5852 5852 5851 5851 5850 5850 5849 5848 5847 5845 5844 5842 5840 5839 5837 5835 5833 5830 5828 5826 5823 5821 5818 5815 5813 5810 5807 5805 5804 5802 5800 5797 5794 5791 5789 5786 5783 5780 5777 5774 5772 5769
5844 5844 5843 5842 5842 5842 5841 5840 5839 5838 5836 5835 5834 5832 5830 5828 5826 5824 5821 5819 5817 5815 5812 5809 5807 5804 5801 5799 5797 5795 5793 5790 5788 5785 5782 5779 5777 5774 5771 5768 5765 5762 5760
5834 5834 5834 5834 5833 5832 5832 5831 5830 5828 5827 5825 5824 5822 5821 5819 5816 5814 5812 5810 5807 5805 5802 5800 5797 5795 5792 5790 5787 5785 5783 5781 5778 5775 5772 5770 5767 5764 5761 5758 5755 5752 5750
5825 5825 5824 5824 5823 5822 5822 5821 5820 5818 5817 5815 5814 5813 5811 5809 5807 5804 5802 5799 5797 5794 5792 5790 5787 5785 5782 5780 5778 5775 5773 5770 5768 5765 5763 5760 5758 5755 5752 5749 5746 5743 5740
5814 5814 5814 5813 5813 5812 5811 5810 5809 5808 5806 5805 5803 5802 5800 5799 5797 5794 5792 5789 5787 5784 5782 5779 5777 5774 5772 5770 5768 5765 5762 5760 5758 5755 5753 5750 5747 5744 5742 5739 5736 5733 5730
5803 5803 5803 5802 5802 5801 5800 5799 5798 5797 5795 5794 5792 5791 5789 5788 5786 5784 5781 5778 5776 5773 5770 5768 5766 5764 5761 5759 5757 5754 5752 5749 5747 5745 5742 5739 5737 5734 5731 5728 5725 5722 5720
5791 5791 5791 5790 5790 5789 5788 5788 5786 5785 5784 5783 5781 5780 5778 5776 5774 5772 5769 5767 5764 5761 5759 5757 5754 5752 5750 5748 5745 5743 5740 5738 5736 5733 5731 5728 5726 5723 5720 5717 5714 5712 5709
5779 5779 5778 5778 5777 5777 5776 5775 5775 5774 5772 5771 5770 5768 5766 5764 5762 5760 5757 5755 5752 5749 5747 5745 5743 5741 5738 5736 5734 5731 5729 5726 5724 5722 5719 5717 5714 5712 5709 5706 5704 5701 5698
5767 5767 5766 5765 5765 5764 5763 5762 5761 5761 5760 5759 5758 5756 5754 5752 5750 5748 5745 5743 5740 5738 5736 5734 5731 5729 5727 5724 5722 5719 5717 5715 5712 5710 5708 5705 5703 5701 5698 5696 5693 5690 5687
5755 5754 5754 5753 5753 5752 5751 5750 5749 5748 5747 5746 5745 5744 5742 5740 5738 5736 5733 5731 5729 5726 5724 5722 5719 5717 5715 5712 5710 5707 5705 5703 5700 5698 5696 5694 5691 5689 5687 5685 5682 5679 5677
5743 5743 5742 5741 5741 5740 5739 5737 5737 5736 5735 5734 5733 5732 5730 5728 5726 5724 5721 5719 5717 5714 5712 5710 5707 5704 5702 5700 5698 5695 5693 5691 5688 5686 5684 5681 5680 5678 5676 5674 5671 5669 5666
5731 5731 5730 5730 5729 5728 5727 5726 5725 5724 5723 5723 5721 5720 5718 5716 5714 5712 5709 5707 5705 5702 5700 5698 5695 5693 5691 5688 5686 5684 5682 5679 5677 5675 5673 5670 5668 5666 5665 5663 5660 5658 5655
5720 5720 5720 5719 5718 5717 5716 5715 5714 5713 5712 5711 5710 5709 5707 5705 5703 5701 5698 5695 5693 5690 5688 5685 5683 5681 5679 5677 5675 5672 5670 5668 5666 5664 5662 5659 5657 5656 5654 5652 5650 5647 5645
5711 5710 5710 5709 5708 5707 5706 5704 5703 5702 5701 5700 5699 5698 5696 5695 5692 5690 5687 5684 5682 5679 5676 5674 5672 5670 5668 5666 5663 5661 5659 5657 5655 5652 5650 5649 5647 5645 5643 5641 5639 5637 5635
5702 5702 5701 5700 5699 5698 5697 5695 5694 5693 5692 5691 5690 5688 5686 5684 5682 5679 5676 5674 5671 5668 5666 5663 5661 5659 5657 5655 5652 5650 5648 5646 5644 5641 5639 5638 5636 5634 5632 5630 5628 5627 5625
5694 5694 5693 5692 5691 5690 5688 5687 5686 5684 5683 5682 5680 5679 5677 5674 5672 5669 5666 5663 5660 5657 5655 5653 5651 5649 5647 5644 5642 5640 5638 5636 5634 5631 5629 5627 5626 5624 5621 5619 5618 5616 5614
5688 5687 5686 5685 5684 5682 5681 5680 5678 5677 5675 5673 5672 5670 5668 5666 5663 5660 5657 5654 5651 5648 5646 5643 5641 5638 5636 5634 5632 5630 5628 5626 5624 5622 5620 5618 5615 5613 5611 5609 5607 5605 5603